Total_Precipitation_Accumulation
0.04 0.08 0.08 0.10 0.05 0.11 0.17 0.16 0.12 0.18 0.21 0.12 0.08 0.07 0.09 0.11 0.10 0.15 0.19 0.16 0.10 0.10 0.13 0.18 0.18 0.16 0.19 0.17 0.16 0.21 0.24 0.23 0.25 0.24 0.19 0.17 0.22 0.25 0.22 0.16 0.12 0.09 0.09
0.09 0.15 0.14 0.14 0.11 0.13 0.20 0.22 0.20 0.36 0.28 0.20 0.15 0.12 0.11 0.11 0.11 0.13 0.14 0.16 0.11 0.06 0.05 0.10 0.15 0.16 0.16 0.15 0.13 0.14 0.16 0.17 0.17 0.16 0.13 0.13 0.19 0.25 0.22 0.17 0.12 0.08 0.06
0.14 0.22 0.27 0.25 0.27 0.25 0.31 0.33 0.38 0.44 0.28 0.26 0.20 0.14 0.10 0.09 0.10 0.10 0.09 0.10 0.12 0.11 0.06 0.06 0.10 0.13 0.15 0.15 0.13 0.14 0.15 0.15 0.17 0.13 0.09 0.10 0.17 0.24 0.22 0.17 0.12 0.07 0.05
0.27 0.38 0.40 0.35 0.46 0.49 0.48 0.52 0.55 0.50 0.43 0.35 0.25 0.14 0.08 0.09 0.07 0.05 0.05 0.06 0.08 0.09 0.08 0.08 0.11 0.12 0.15 0.16 0.19 0.19 0.22 0.24 0.25 0.19 0.12 0.10 0.17 0.23 0.22 0.18 0.13 0.07 0.05
0.47 0.57 0.53 0.59 0.66 0.64 0.65 0.53 0.61 0.58 0.56 0.51 0.34 0.22 0.11 0.07 0.05 0.04 0.05 0.05 0.06 0.05 0.04 0.06 0.06 0.08 0.15 0.24 0.26 0.25 0.27 0.32 0.31 0.25 0.20 0.16 0.17 0.21 0.24 0.23 0.18 0.13 0.10
0.70 0.80 0.77 0.82 0.84 0.86 0.82 0.78 0.75 0.72 0.67 0.63 0.41 0.27 0.18 0.09 0.06 0.05 0.06 0.06 0.04 0.03 0.03 0.05 0.12 0.09 0.15 0.23 0.25 0.27 0.26 0.30 0.32 0.28 0.26 0.25 0.28 0.33 0.33 0.30 0.29 0.26 0.19
0.79 0.94 0.91 1.00 0.95 0.87 0.89 0.90 0.88 0.77 0.73 0.81 0.62 0.33 0.14 0.08 0.08 0.09 0.12 0.13 0.08 0.04 0.03 0.05 0.09 0.13 0.15 0.15 0.19 0.24 0.31 0.36 0.36 0.33 0.32 0.34 0.43 0.57 0.49 0.48 0.50 0.45 0.37
0.92 0.95 0.98 0.95 0.92 0.95 0.98 0.94 1.01 0.88 0.66 0.74 0.71 0.54 0.25 0.17 0.19 0.16 0.19 0.20 0.15 0.10 0.08 0.08 0.11 0.19 0.20 0.24 0.25 0.19 0.28 0.39 0.40 0.42 0.41 0.44 0.57 0.71 0.64 0.69 0.68 0.59 0.51
0.92 0.94 0.95 1.02 1.13 1.14 1.04 0.99 0.98 0.92 0.73 0.70 0.78 0.80 0.53 0.36 0.24 0.09 0.12 0.16 0.21 0.24 0.19 0.19 0.19 0.21 0.24 0.29 0.39 0.37 0.25 0.26 0.33 0.44 0.53 0.57 0.62 0.67 0.79 0.91 0.86 0.72 0.56
0.94 0.93 0.94 0.96 0.94 0.93 0.89 0.80 0.85 0.94 0.87 0.74 0.80 0.85 0.81 0.70 0.54 0.26 0.15 0.18 0.27 0.31 0.30 0.26 0.20 0.17 0.23 0.33 0.46 0.52 0.46 0.35 0.32 0.44 0.57 0.63 0.63 0.65 0.81 0.96 1.01 0.86 0.61
0.85 0.84 0.80 0.78 0.71 0.71 0.78 0.79 0.82 0.84 0.85 0.79 0.77 0.84 0.87 0.86 0.89 0.72 0.43 0.40 0.39 0.31 0.32 0.28 0.22 0.20 0.23 0.28 0.34 0.42 0.49 0.43 0.43 0.43 0.39 0.46 0.51 0.55 0.64 0.82 0.99 0.97 0.76
0.74 0.71 0.72 0.71 0.67 0.69 0.76 0.78 0.78 0.73 0.76 0.77 0.80 0.86 0.87 0.88 0.96 0.99 0.75 0.59 0.45 0.33 0.32 0.28 0.25 0.23 0.23 0.24 0.27 0.34 0.34 0.32 0.37 0.43 0.38 0.39 0.37 0.36 0.43 0.57 0.73 0.84 0.82
0.55 0.54 0.54 0.61 0.63 0.69 0.70 0.67 0.71 0.75 0.79 0.80 0.81 0.85 0.87 0.83 0.81 0.84 0.81 0.65 0.53 0.41 0.39 0.36 0.29 0.25 0.21 0.24 0.28 0.25 0.20 0.17 0.18 0.22 0.22 0.24 0.24 0.24 0.28 0.36 0.45 0.56 0.66
0.42 0.44 0.50 0.60 0.65 0.69 0.68 0.69 0.67 0.69 0.76 0.79 0.82 0.87 0.77 0.70 0.68 0.73 0.76 0.70 0.57 0.50 0.54 0.43 0.34 0.27 0.25 0.25 0.23 0.16 0.16 0.12 0.11 0.11 0.09 0.09 0.11 0.11 0.14 0.19 0.26 0.35 0.42
0.38 0.40 0.46 0.55 0.68 0.78 0.80 0.77 0.75 0.79 0.89 0.93 0.99 0.95 0.78 0.67 0.62 0.65 0.71 0.73 0.64 0.49 0.43 0.44 0.37 0.26 0.21 0.19 0.16 0.14 0.24 0.19 0.11 0.08 0.06 0.05 0.06 0.07 0.08 0.11 0.16 0.21 0.26
0.34 0.39 0.46 0.53 0.58 0.64 0.67 0.66 0.73 0.80 0.86 0.87 0.82 0.80 0.75 0.70 0.69 0.66 0.69 0.70 0.67 0.53 0.34 0.42 0.42 0.26 0.24 0.14 0.14 0.15 0.19 0.16 0.11 0.08 0.05 0.05 0.06 0.06 0.08 0.09 0.12 0.15 0.18
0.32 0.37 0.42 0.42 0.42 0.43 0.44 0.46 0.55 0.64 0.65 0.59 0.52 0.49 0.46 0.45 0.46 0.44 0.46 0.50 0.53 0.52 0.37 0.46 0.65 0.49 0.39 0.27 0.22 0.23 0.18 0.16 0.16 0.11 0.07 0.06 0.06 0.08 0.11 0.11 0.12 0.13 0.15
0.26 0.30 0.32 0.32 0.31 0.32 0.36 0.40 0.47 0.50 0.50 0.46 0.40 0.33 0.27 0.27 0.27 0.25 0.29 0.35 0.40 0.45 0.43 0.40 0.57 0.65 0.56 0.39 0.35 0.34 0.26 0.19 0.22 0.19 0.10 0.07 0.07 0.08 0.13 0.15 0.14 0.14 0.15
0.20 0.22 0.25 0.28 0.30 0.34 0.40 0.48 0.52 0.47 0.37 0.29 0.24 0.18 0.13 0.11 0.13 0.15 0.18 0.23 0.28 0.42 0.44 0.42 0.48 0.67 0.64 0.51 0.51 0.44 0.43 0.45 0.34 0.28 0.17 0.11 0.12 0.13 0.15 0.20 0.20 0.20 0.19
0.20 0.24 0.28 0.32 0.38 0.41 0.42 0.42 0.41 0.37 0.28 0.19 0.14 0.08 0.04 0.03 0.05 0.08 0.12 0.16 0.20 0.25 0.33 0.40 0.46 0.60 0.62 0.51 0.62 0.61 0.57 0.58 0.53 0.43 0.35 0.21 0.16 0.19 0.21 0.22 0.24 0.27 0.29
0.16 0.23 0.28 0.30 0.32 0.32 0.34 0.30 0.25 0.18 0.14 0.11 0.09 0.03 0.01 0.01 0.01 0.02 0.05 0.11 0.14 0.18 0.24 0.33 0.41 0.50 0.62 0.55 0.50 0.58 0.63 0.64 0.66 0.70 0.73 0.50 0.28 0.23 0.25 0.27 0.28 0.35 0.42
0.11 0.13 0.16 0.17 0.15 0.13 0.14 0.14 0.12 0.09 0.05 0.04 0.04 0.02 0.01 0.00 0.01 0.01 0.01 0.02 0.03 0.06 0.15 0.24 0.31 0.38 0.49 0.56 0.51 0.53 0.61 0.65 0.70 0.75 0.88 0.95 0.71 0.53 0.44 0.30 0.27 0.33 0.45
0.11 0.11 0.09 0.06 0.06 0.06 0.05 0.04 0.03 0.02 0.01 0.01 0.01 0.01 0.00 0.00 0.00 0.01 0.02 0.03 0.03 0.01 0.04 0.13 0.15 0.15 0.21 0.26 0.34 0.49 0.66 0.72 0.83 0.96 0.98 1.13 1.27 1.10 0.75 0.50 0.38 0.30 0.37
0.16 0.15 0.08 0.04 0.02 0.02 0.02 0.01 0.01 0.01 0.01 0.00 0.00 0.00 0.00 0.00 0.00 0.01 0.03 0.06 0.05 0.01 0.01 0.02 0.02 0.02 0.03 0.05 0.10 0.18 0.39 0.69 0.83 0.98 1.08 1.27 1.46 1.73 1.38 0.89 0.66 0.48 0.45
0.13 0.15 0.10 0.05 0.02 0.01 0.00 0.00 0.00 0.02 0.02 0.01 0.00 0.00 0.00 0.00 0.00 0.00 0.02 0.04 0.03 0.01 0.00 0.00 0.00 0.00 0.00 0.01 0.02 0.09 0.15 0.26 0.50 0.87 1.13 1.34 1.49 1.68 2.02 1.67 1.05 0.66 0.48
0.08 0.08 0.08 0.08 0.05 0.02 0.00 0.00 0.00 0.01 0.02 0.01 0.00 0.00 0.00 0.00 0.00 0.00 0.01 0.01 0.01 0.01 0.00 0.01 0.02 0.01 0.01 0.01 0.01 0.03 0.05 0.11 0.21 0.43 0.69 0.85 1.01 1.21 1.70 2.07 1.78 1.20 0.77